| time (UTC) | temp C | wind direction | speed KPH | gust KPH | rain 1hr cm | rain 24hr cm | rain mn cm | humidity % | barometer mb |
| 20260510190248 | 16 | 17 | 3.2 | 11.3 | 0.00 | 0.18 | 0.18 | 43 | 1014.1 |
| 20260510185744 | 16 | 58 | 4.8 | 6.4 | 0.00 | 0.18 | 0.18 | 47 | 1014.2 |
| 20260510185243 | 15 | 11 | 4.8 | 8.0 | 0.00 | 0.18 | 0.18 | 46 | 1014.1 |
| 20260510184739 | 15 | 0 | 3.2 | 6.4 | 0.00 | 0.18 | 0.18 | 47 | 1014.3 |
| 20260510184237 | 16 | 233 | 6.4 | 8.0 | 0.00 | 0.18 | 0.18 | 43 | 1014.2 |
| 20260510183731 | 15 | 240 | 9.7 | 20.9 | 0.00 | 0.18 | 0.18 | 45 | 1014.4 |
| 20260510183227 | 15 | 265 | 6.4 | 27.4 | 0.00 | 0.18 | 0.18 | 50 | 1014.4 |
| 20260510182723 | 15 | 229 | 11.3 | 17.7 | 0.00 | 0.18 | 0.18 | 45 | 1014.2 |
| 20260510182219 | 15 | 346 | 12.9 | 12.9 | 0.00 | 0.18 | 0.18 | 48 | 1014.2 |
| 20260510181716 | 15 | 250 | 17.7 | 20.9 | 0.00 | 0.18 | 0.18 | 47 | 1014.3 |
| 20260510181213 | 15 | 256 | 6.4 | 11.3 | 0.00 | 0.18 | 0.18 | 46 | 1014.2 |
| 20260510180709 | 15 | 199 | 8.0 | 16.1 | 0.00 | 0.18 | 0.18 | 48 | 1014.2 |
| 20260510180207 | 15 | 224 | 4.8 | 8.0 | 0.00 | 0.18 | 0.18 | 46 | 1014.0 |
| 20260510175703 | 15 | 27 | 3.2 | 8.0 | 0.00 | 0.18 | 0.18 | 47 | 1014.3 |
| 20260510175158 | 15 | 156 | 3.2 | 11.3 | 0.00 | 0.18 | 0.18 | 47 | 1014.3 |
| 20260510174656 | 15 | 328 | 4.8 | 8.0 | 0.00 | 0.18 | 0.18 | 46 | 1014.3 |
| 20260510174153 | 15 | 328 | 4.8 | 9.7 | 0.00 | 0.18 | 0.18 | 48 | 1014.3 |
| 20260510173649 | 15 | 308 | 3.2 | 11.3 | 0.00 | 0.18 | 0.18 | 52 | 1014.4 |
| 20260510173145 | 14 | 242 | 11.3 | 17.7 | 0.00 | 0.18 | 0.18 | 49 | 1014.3 |
| 20260510172641 | 14 | 196 | 4.8 | 12.9 | 0.00 | 0.18 | 0.18 | 55 | 1014.3 |
| 20260510172137 | 14 | 226 | 4.8 | 12.9 | 0.00 | 0.18 | 0.18 | 52 | 1014.3 |
| 20260510171634 | 14 | 272 | 1.6 | 4.8 | 0.00 | 0.18 | 0.18 | 55 | 1014.3 |
| 20260510171132 | 13 | 158 | 4.8 | 16.1 | 0.00 | 0.18 | 0.18 | 64 | 1014.3 |
| 20260510170628 | 13 | 217 | 4.8 | 8.0 | 0.00 | 0.18 | 0.18 | 57 | 1014.6 |
| 20260510170124 | 13 | 246 | 3.2 | 4.8 | 0.00 | 0.18 | 0.18 | 59 | 1014.6 |
| 20260510165620 | 13 | 12 | 3.2 | 4.8 | 0.00 | 0.18 | 0.18 | 63 | 1014.9 |
| 20260510165116 | 13 | 101 | 3.2 | 4.8 | 0.00 | 0.18 | 0.18 | 62 | 1014.6 |
| 20260510164614 | 12 | 318 | 0.0 | 6.4 | 0.00 | 0.18 | 0.18 | 62 | 1014.9 |
| 20260510164110 | 12 | 260 | 1.6 | 4.8 | 0.00 | 0.18 | 0.18 | 62 | 1014.7 |
| 20260510163605 | 12 | 5 | 6.4 | 8.0 | 0.00 | 0.18 | 0.18 | 62 | 1014.6 |
| 20260510163102 | 12 | 351 | 3.2 | 6.4 | 0.00 | 0.18 | 0.18 | 66 | 1014.7 |
| 20260510162556 | 11 | 29 | 3.2 | 8.0 | 0.00 | 0.18 | 0.18 | 62 | 1014.8 |
| 20260510162053 | 11 | 13 | 1.6 | 4.8 | 0.00 | 0.18 | 0.18 | 65 | 1014.7 |
| 20260510161549 | 11 | 347 | 4.8 | 11.3 | 0.00 | 0.18 | 0.18 | 62 | 1014.3 |
| 20260510161046 | 11 | 356 | 3.2 | 11.3 | 0.00 | 0.18 | 0.18 | 67 | 1014.4 |
| 20260510160543 | 11 | 329 | 3.2 | 8.0 | 0.00 | 0.18 | 0.18 | 70 | 1014.6 |
| 20260510160042 | 11 | 330 | 0.0 | 9.7 | 0.00 | 0.18 | 0.18 | 71 | 1014.6 |
| 20260510155539 | 11 | 326 | 3.2 | 4.8 | 0.00 | 0.18 | 0.18 | 76 | 1014.6 |
| 20260510155036 | 11 | 337 | 3.2 | 6.4 | 0.00 | 0.18 | 0.18 | 75 | 1014.4 |
| 20260510154531 | 11 | 245 | 0.0 | 4.8 | 0.00 | 0.18 | 0.18 | 78 | 1014.7 |
| 20260510154026 | 11 | 22 | 4.8 | 6.4 | 0.00 | 0.18 | 0.18 | 75 | 1014.4 |
| 20260510153521 | 11 | 328 | 3.2 | 4.8 | 0.00 | 0.18 | 0.18 | 77 | 1014.3 |
| 20260510153019 | 11 | 237 | 4.8 | 6.4 | 0.00 | 0.18 | 0.18 | 77 | 1014.6 |
| 20260510152516 | 11 | 22 | 1.6 | 3.2 | 0.00 | 0.18 | 0.18 | 80 | 1014.2 |
| 20260510152012 | 10 | 352 | 0.0 | 3.2 | 0.00 | 0.18 | 0.18 | 80 | 1014.3 |
| 20260510151509 | 10 | 325 | 3.2 | 4.8 | 0.00 | 0.18 | 0.18 | 81 | 1014.3 |
| 20260510151006 | 10 | 61 | 0.0 | 6.4 | 0.00 | 0.18 | 0.18 | 82 | 1014.3 |
| 20260510150456 | 10 | 6 | 3.2 | 6.4 | 0.00 | 0.18 | 0.18 | 82 | 1014.0 |
| 20260510145952 | 10 | 13 | 6.4 | 8.0 | 0.00 | 0.18 | 0.18 | 81 | 1013.9 |
| 20260510145448 | 10 | 357 | 3.2 | 6.4 | 0.00 | 0.18 | 0.18 | 81 | 1014.0 |
| 20260510144945 | 10 | 309 | 3.2 | 11.3 | 0.00 | 0.18 | 0.18 | 80 | 1013.8 |
| 20260510144442 | 10 | 302 | 4.8 | 8.0 | 0.00 | 0.18 | 0.18 | 82 | 1014.0 |
| 20260510143937 | 10 | 74 | 1.6 | 6.4 | 0.00 | 0.18 | 0.18 | 83 | 1013.8 |
| 20260510143433 | 10 | 75 | 4.8 | 8.0 | 0.00 | 0.18 | 0.18 | 83 | 1013.8 |
| 20260510142930 | 10 | 350 | 4.8 | 11.3 | 0.00 | 0.18 | 0.18 | 83 | 1013.8 |
| 20260510142421 | 10 | 43 | 3.2 | 11.3 | 0.00 | 0.18 | 0.18 | 84 | 1013.7 |
| 20260510141917 | 10 | 274 | 0.0 | 4.8 | 0.00 | 0.18 | 0.18 | 84 | 1013.8 |
| 20260510141415 | 10 | 336 | 3.2 | 4.8 | 0.00 | 0.18 | 0.18 | 85 | 1013.5 |
| 20260510140911 | 10 | 0 | 4.8 | 8.0 | 0.00 | 0.18 | 0.18 | 85 | 1013.6 |
| 20260510140408 | 9 | 337 | 4.8 | 12.9 | 0.00 | 0.18 | 0.18 | 85 | 1013.5 |
| 20260510135901 | 9 | 314 | 3.2 | 9.7 | 0.00 | 0.18 | 0.18 | 87 | 1013.5 |
| 20260510135358 | 10 | 309 | 3.2 | 6.4 | 0.00 | 0.18 | 0.18 | 88 | 1013.4 |
| 20260510134855 | 10 | 18 | 3.2 | 6.4 | 0.00 | 0.18 | 0.18 | 88 | 1013.3 |
| 20260510134351 | 10 | 13 | 3.2 | 6.4 | 0.00 | 0.18 | 0.18 | 87 | 1013.3 |
| 20260510133848 | 10 | 9 | 3.2 | 8.0 | 0.00 | 0.18 | 0.18 | 87 | 1012.8 |
| 20260510133344 | 10 | 1 | 4.8 | 4.8 | 0.00 | 0.18 | 0.18 | 87 | 1012.8 |
| 20260510132839 | 10 | 353 | 3.2 | 8.0 | 0.00 | 0.18 | 0.18 | 88 | 1012.8 |
| 20260510132338 | 9 | 340 | 1.6 | 9.7 | 0.00 | 0.18 | 0.18 | 89 | 1012.9 |
| 20260510131834 | 9 | 352 | 4.8 | 8.0 | 0.00 | 0.18 | 0.18 | 91 | 1012.9 |
| 20260510131332 | 8 | 335 | 4.8 | 12.9 | 0.00 | 0.18 | 0.18 | 96 | 1013.0 |
| 20260510130828 | 8 | 17 | 4.8 | 6.4 | 0.00 | 0.18 | 0.18 | 96 | 1013.0 |
| 20260510130326 | 8 | 346 | 4.8 | 9.7 | 0.00 | 0.18 | 0.18 | 96 | 1012.9 |
| 20260510125822 | 10 | 333 | 4.8 | 6.4 | 0.00 | 0.18 | 0.18 | 96 | 1013.0 |
| 20260510125318 | 10 | 283 | 0.0 | 3.2 | 0.00 | 0.18 | 0.18 | 96 | 1012.9 |
| 20260510124815 | 10 | 225 | 4.8 | 8.0 | 0.00 | 0.18 | 0.18 | 96 | 1012.7 |
| 20260510124312 | 10 | 224 | 0.0 | 3.2 | 0.00 | 0.18 | 0.18 | 96 | 1012.7 |
| 20260510123808 | 10 | 205 | 0.0 | 3.2 | 0.00 | 0.18 | 0.18 | 96 | 1012.7 |
| 20260510123304 | 10 | 232 | 0.0 | 4.8 | 0.00 | 0.18 | 0.18 | 96 | 1012.7 |
| 20260510122800 | 10 | 76 | 0.0 | 1.6 | 0.00 | 0.18 | 0.18 | 96 | 1012.3 |
| 20260510122256 | 9 | 48 | 0.0 | 3.2 | 0.00 | 0.18 | 0.18 | 96 | 1012.5 |
| 20260510121753 | 9 | 127 | 0.0 | 3.2 | 0.00 | 0.18 | 0.18 | 96 | 1012.3 |
| 20260510121250 | 9 | 60 | 0.0 | 0.0 | 0.00 | 0.18 | 0.18 | 96 | 1012.1 |
| 20260510120747 | 9 | 60 | 0.0 | 1.6 | 0.00 | 0.18 | 0.18 | 96 | 1012.1 |
| 20260510120244 | 9 | 106 | 0.0 | 3.2 | 0.00 | 0.18 | 0.18 | 96 | 1012.1 |
| 20260510115739 | 9 | 99 | 1.6 | 4.8 | 0.00 | 0.18 | 0.18 | 96 | 1012.0 |
| 20260510115238 | 9 | 77 | 0.0 | 3.2 | 0.05 | 0.18 | 0.18 | 96 | 1012.1 |
| 20260510114732 | 9 | 164 | 0.0 | 1.6 | 0.05 | 0.18 | 0.18 | 96 | 1011.8 |
| 20260510114230 | 9 | 86 | 3.2 | 3.2 | 0.00 | 0.18 | 0.18 | 96 | 1011.5 |
| 20260510113725 | 8 | 121 | 0.0 | 3.2 | 0.00 | 0.18 | 0.18 | 96 | 1011.5 |
| 20260510113223 | 8 | 73 | 0.0 | 3.2 | 0.00 | 0.18 | 0.18 | 96 | 1011.6 |
| 20260510112719 | 8 | 89 | 0.0 | 3.2 | 0.00 | 0.18 | 0.18 | 96 | 1011.6 |
| 20260510112216 | 8 | 118 | 0.0 | 3.2 | 0.00 | 0.18 | 0.18 | 96 | 1011.4 |
| 20260510111711 | 8 | 82 | 0.0 | 4.8 | 0.00 | 0.18 | 0.18 | 96 | 1011.4 |
| 20260510111208 | 8 | 113 | 0.0 | 3.2 | 0.00 | 0.18 | 0.18 | 96 | 1011.3 |
| 20260510110703 | 8 | 119 | 0.0 | 1.6 | 0.00 | 0.18 | 0.18 | 96 | 1011.1 |
| 20260510110201 | 8 | 114 | 1.6 | 3.2 | 0.00 | 0.18 | 0.18 | 96 | 1011.0 |
| 20260510105655 | 8 | 145 | 1.6 | 3.2 | 0.00 | 0.18 | 0.18 | 96 | 1011.0 |
| 20260510105150 | 7 | 125 | 3.2 | 4.8 | 0.00 | 0.18 | 0.18 | 96 | 1010.8 |
| 20260510104647 | 7 | 100 | 1.6 | 3.2 | 0.00 | 0.18 | 0.18 | 96 | 1010.6 |
| 20260510104144 | 7 | 55 | 0.0 | 1.6 | 0.00 | 0.18 | 0.18 | 96 | 1010.7 |
| 20260510103641 | 7 | 124 | 1.6 | 3.2 | 0.00 | 0.18 | 0.18 | 96 | 1010.5 |
| 20260510103137 | 7 | 109 | 0.0 | 4.8 | 0.00 | 0.18 | 0.18 | 96 | 1010.6 |
| 20260510102632 | 7 | 130 | 3.2 | 4.8 | 0.00 | 0.18 | 0.18 | 96 | 1010.6 |
| 20260510102128 | 7 | 145 | 0.0 | 3.2 | 0.00 | 0.18 | 0.18 | 96 | 1010.5 |
| 20260510101626 | 7 | 117 | 1.6 | 3.2 | 0.00 | 0.18 | 0.18 | 96 | 1010.1 |
| 20260510101124 | 7 | 81 | 1.6 | 3.2 | 0.00 | 0.18 | 0.18 | 96 | 1010.3 |
| 20260510100620 | 7 | 128 | 0.0 | 3.2 | 0.00 | 0.18 | 0.18 | 96 | 1010.2 |
| 20260510100118 | 7 | 87 | 1.6 | 3.2 | 0.00 | 0.18 | 0.18 | 96 | 1010.3 |
| 20260510095613 | 7 | 65 | 0.0 | 1.6 | 0.00 | 0.18 | 0.18 | 96 | 1010.3 |
| 20260510095113 | 7 | 128 | 0.0 | 3.2 | 0.00 | 0.18 | 0.18 | 96 | 1010.2 |
| 20260510094612 | 7 | 89 | 0.0 | 3.2 | 0.00 | 0.18 | 0.18 | 96 | 1010.0 |
| 20260510094108 | 7 | 94 | 3.2 | 4.8 | 0.00 | 0.18 | 0.18 | 96 | 1010.0 |
| 20260510093605 | 7 | 100 | 3.2 | 4.8 | 0.00 | 0.18 | 0.18 | 96 | 1010.0 |
| 20260510093101 | 7 | 78 | 0.0 | 3.2 | 0.00 | 0.18 | 0.18 | 96 | 1010.1 |
| 20260510092558 | 7 | 37 | 3.2 | 4.8 | 0.00 | 0.18 | 0.18 | 96 | 1010.0 |
| 20260510092058 | 7 | 100 | 3.2 | 4.8 | 0.00 | 0.18 | 0.18 | 96 | 1010.0 |
| 20260510091555 | 7 | 101 | 3.2 | 3.2 | 0.00 | 0.18 | 0.18 | 96 | 1009.7 |
| 20260510091051 | 7 | 110 | 0.0 | 3.2 | 0.00 | 0.18 | 0.18 | 96 | 1009.7 |
| 20260510090548 | 7 | 101 | 3.2 | 4.8 | 0.00 | 0.18 | 0.18 | 96 | 1009.7 |
| 20260510090043 | 7 | 101 | 3.2 | 4.8 | 0.00 | 0.18 | 0.18 | 96 | 1009.7 |
| 20260510085538 | 7 | 104 | 3.2 | 3.2 | 0.00 | 0.18 | 0.18 | 96 | 1009.7 |
| 20260510085035 | 7 | 89 | 1.6 | 3.2 | 0.00 | 0.18 | 0.18 | 96 | 1009.5 |
| 20260510084532 | 7 | 101 | 1.6 | 3.2 | 0.00 | 0.18 | 0.18 | 96 | 1009.3 |
| 20260510084029 | 7 | 73 | 0.0 | 3.2 | 0.00 | 0.18 | 0.18 | 96 | 1009.6 |
| 20260510083525 | 7 | 98 | 0.0 | 3.2 | 0.00 | 0.18 | 0.18 | 96 | 1009.3 |
| 20260510083021 | 7 | 111 | 0.0 | 3.2 | 0.00 | 0.18 | 0.18 | 96 | 1009.6 |
| 20260510082518 | 7 | 105 | 3.2 | 3.2 | 0.00 | 0.18 | 0.18 | 96 | 1009.5 |
| 20260510082013 | 7 | 56 | 1.6 | 3.2 | 0.00 | 0.18 | 0.18 | 96 | 1009.3 |
| 20260510081508 | 7 | 77 | 0.0 | 3.2 | 0.00 | 0.18 | 0.18 | 96 | 1009.5 |
| 20260510081005 | 7 | 110 | 1.6 | 4.8 | 0.00 | 0.18 | 0.18 | 96 | 1009.3 |
| 20260510080503 | 7 | 104 | 1.6 | 3.2 | 0.00 | 0.18 | 0.18 | 96 | 1009.2 |
| 20260510080000 | 7 | 101 | 3.2 | 3.2 | 0.00 | 0.18 | 0.18 | 96 | 1009.1 |
| 20260510075458 | 7 | 94 | 3.2 | 3.2 | 0.00 | 0.18 | 0.18 | 96 | 1009.1 |
| 20260510074954 | 7 | 76 | 1.6 | 3.2 | 0.00 | 0.18 | 0.18 | 96 | 1009.1 |
| 20260510074452 | 7 | 87 | 1.6 | 3.2 | 0.00 | 0.18 | 0.18 | 96 | 1009.1 |
| 20260510073948 | 7 | 92 | 3.2 | 3.2 | 0.00 | 0.18 | 0.18 | 96 | 1008.9 |
| 20260510073443 | 7 | 89 | 1.6 | 1.6 | 0.00 | 0.18 | 0.18 | 96 | 1009.1 |
| 20260510072940 | 7 | 117 | 1.6 | 3.2 | 0.00 | 0.18 | 0.18 | 96 | 1009.0 |
| 20260510072437 | 7 | 119 | 0.0 | 4.8 | 0.00 | 0.18 | 0.18 | 96 | 1008.9 |
| 20260510071933 | 7 | 89 | 3.2 | 4.8 | 0.00 | 0.18 | 0.18 | 96 | 1009.1 |
| 20260510071429 | 7 | 93 | 1.6 | 3.2 | 0.00 | 0.18 | 0.18 | 96 | 1008.9 |
| 20260510070927 | 7 | 95 | 3.2 | 3.2 | 0.00 | 0.18 | 0.18 | 96 | 1008.9 |
| 20260510070425 | 8 | 88 | 3.2 | 3.2 | 0.00 | 0.18 | 0.18 | 96 | 1009.0 |
| 20260510065920 | 8 | 103 | 4.8 | 4.8 | 0.00 | 0.18 | 0.18 | 96 | 1009.0 |
| 20260510065417 | 8 | 147 | 0.0 | 3.2 | 0.00 | 0.18 | 0.18 | 96 | 1009.1 |
| 20260510064913 | 8 | 101 | 1.6 | 3.2 | 0.00 | 0.18 | 0.18 | 96 | 1008.8 |
| 20260510064411 | 8 | 92 | 1.6 | 1.6 | 0.05 | 0.18 | 0.18 | 96 | 1009.1 |
| 20260510063907 | 8 | 87 | 0.0 | 3.2 | 0.05 | 0.18 | 0.18 | 96 | 1009.0 |
| 20260510063403 | 8 | 66 | 3.2 | 4.8 | 0.00 | 0.15 | 0.15 | 96 | 1009.1 |
| 20260510062901 | 8 | 98 | 3.2 | 4.8 | 0.05 | 0.15 | 0.15 | 96 | 1009.1 |
| 20260510062356 | 8 | 114 | 3.2 | 4.8 | 0.05 | 0.15 | 0.15 | 96 | 1009.1 |
| 20260510061851 | 8 | 89 | 0.0 | 1.6 | 0.05 | 0.15 | 0.15 | 96 | 1009.0 |
| 20260510061348 | 8 | 89 | 0.0 | 4.8 | 0.13 | 0.15 | 0.15 | 96 | 1009.1 |
| 20260510060844 | 8 | 171 | 0.0 | 12.9 | 0.05 | 0.15 | 0.15 | 96 | 1009.2 |
| 20260510060341 | 8 | 121 | 4.8 | 6.4 | 0.05 | 0.13 | 0.13 | 96 | 1009.6 |
| 20260510055838 | 8 | 202 | 3.2 | 3.2 | 0.13 | 0.13 | 0.13 | 96 | 1009.5 |
| 20260510055336 | 8 | 115 | 4.8 | 8.0 | 0.05 | 0.13 | 0.13 | 96 | 1009.1 |
| 20260510054831 | 8 | 101 | 0.0 | 3.2 | 0.05 | 0.10 | 0.10 | 96 | 1009.5 |
| 20260510054326 | 8 | 183 | 3.2 | 3.2 | 0.13 | 0.10 | 0.10 | 96 | 1009.6 |
| 20260510053822 | 8 | 127 | 3.2 | 4.8 | 0.05 | 0.10 | 0.10 | 96 | 1009.6 |
| 20260510053317 | 8 | 139 | 4.8 | 8.0 | 0.05 | 0.10 | 0.10 | 96 | 1009.6 |
| 20260510052814 | 8 | 184 | 3.2 | 6.4 | 0.05 | 0.10 | 0.10 | 96 | 1010.0 |
| 20260510052310 | 8 | 184 | 3.2 | 6.4 | 0.05 | 0.08 | 0.08 | 96 | 1009.9 |
| 20260510051806 | 8 | 105 | 3.2 | 4.8 | 0.05 | 0.08 | 0.08 | 96 | 1010.0 |
| 20260510051303 | 8 | 124 | 6.4 | 6.4 | 0.05 | 0.05 | 0.05 | 96 | 1010.2 |
| 20260510050800 | 8 | 124 | 6.4 | 6.4 | 0.13 | 0.05 | 0.05 | 96 | 1010.2 |
| 20260510050257 | 9 | 124 | 6.4 | 8.0 | 0.13 | 0.05 | 0.05 | 96 | 1010.4 |
| 20260510045754 | 9 | 135 | 3.2 | 6.4 | 0.13 | 0.05 | 0.05 | 96 | 1010.5 |
| 20260510045250 | 9 | 120 | 4.8 | 6.4 | 0.13 | 0.03 | 0.03 | 96 | 1010.8 |
| 20260510044747 | 9 | 137 | 1.6 | 3.2 | 0.05 | 0.03 | 0.03 | 95 | 1010.7 |
| 20260510044245 | 9 | 109 | 4.8 | 6.4 | 0.05 | 0.00 | 0.00 | 93 | 1010.6 |
| 20260510043740 | 10 | 116 | 4.8 | 6.4 | 0.05 | 0.00 | 0.00 | 92 | 1010.6 |
| 20260510043237 | 10 | 214 | 3.2 | 4.8 | 0.00 | 0.00 | 0.00 | 90 | 1010.7 |
| 20260510042734 | 10 | 253 | 8.0 | 9.7 | 0.00 | 0.00 | 0.00 | 90 | 1010.7 |
| 20260510042229 | 10 | 335 | 3.2 | 6.4 | 0.00 | 0.00 | 0.00 | 89 | 1010.6 |
| 20260510041727 | 10 | 252 | 8.0 | 11.3 | 0.00 | 0.00 | 0.00 | 88 | 1010.8 |
| 20260510041224 | 10 | 304 | 4.8 | 9.7 | 0.00 | 0.00 | 0.00 | 88 | 1010.7 |
| 20260510040721 | 10 | 221 | 4.8 | 14.5 | 0.00 | 0.00 | 0.00 | 89 | 1010.5 |
| 20260510040218 | 10 | 331 | 3.2 | 12.9 | 0.00 | 0.00 | 0.00 | 90 | 1010.3 |
| 20260510035713 | 10 | 246 | 19.3 | 25.7 | 0.00 | 0.94 | 0.94 | 92 | 1010.4 |
| 20260510035209 | 10 | 264 | 8.0 | 14.5 | 0.00 | 0.94 | 0.94 | 96 | 1010.5 |
| 20260510034705 | 10 | 242 | 9.7 | 16.1 | 0.00 | 0.94 | 0.94 | 96 | 1010.3 |
| 20260510034203 | 10 | 331 | 4.8 | 22.5 | 0.00 | 0.94 | 0.94 | 96 | 1010.2 |
| 20260510033659 | 10 | 147 | 1.6 | 6.4 | 0.00 | 0.94 | 0.94 | 96 | 1009.3 |
| 20260510033157 | 9 | 146 | 4.8 | 8.0 | 0.00 | 0.94 | 0.94 | 96 | 1009.2 |
| 20260510032653 | 9 | 176 | 3.2 | 4.8 | 0.00 | 0.94 | 0.94 | 96 | 1009.1 |
| 20260510032149 | 9 | 126 | 3.2 | 6.4 | 0.00 | 0.94 | 0.94 | 96 | 1009.0 |
| 20260510031643 | 9 | 125 | 4.8 | 8.0 | 0.00 | 0.94 | 0.94 | 96 | 1008.9 |
| 20260510031140 | 9 | 128 | 4.8 | 6.4 | 0.00 | 0.94 | 0.94 | 96 | 1009.1 |
| 20260510030635 | 9 | 104 | 3.2 | 4.8 | 0.00 | 0.94 | 0.94 | 96 | 1009.1 |
| 20260510030133 | 9 | 171 | 4.8 | 9.7 | 0.00 | 0.94 | 0.94 | 96 | 1009.5 |
| 20260510025630 | 9 | 110 | 1.6 | 4.8 | 0.00 | 0.94 | 0.94 | 96 | 1009.2 |
| 20260510025127 | 9 | 113 | 4.8 | 4.8 | 0.00 | 0.94 | 0.94 | 96 | 1009.2 |
| 20260510024623 | 9 | 131 | 3.2 | 4.8 | 0.00 | 0.94 | 0.94 | 96 | 1009.0 |
| 20260510024120 | 9 | 132 | 0.0 | 4.8 | 0.00 | 0.94 | 0.94 | 96 | 1009.0 |
| 20260510023616 | 9 | 141 | 3.2 | 9.7 | 0.00 | 0.94 | 0.94 | 96 | 1008.8 |
| 20260510023114 | 9 | 149 | 8.0 | 9.7 | 0.00 | 0.94 | 0.94 | 96 | 1008.5 |
| 20260510022613 | 9 | 166 | 3.2 | 4.8 | 0.00 | 0.94 | 0.94 | 96 | 1008.5 |
| 20260510022108 | 9 | 150 | 1.6 | 4.8 | 0.00 | 0.94 | 0.94 | 96 | 1008.5 |
| 20260510021604 | 9 | 127 | 4.8 | 6.4 | 0.00 | 0.94 | 0.94 | 96 | 1008.5 |
| 20260510021102 | 9 | 152 | 3.2 | 4.8 | 0.00 | 0.94 | 0.94 | 96 | 1008.6 |
| 20260510020556 | 9 | 146 | 4.8 | 8.0 | 0.00 | 0.94 | 0.94 | 96 | 1008.5 |
| 20260510020052 | 9 | 166 | 0.0 | 4.8 | 0.00 | 0.94 | 0.94 | 96 | 1008.4 |
| 20260510015548 | 9 | 125 | 4.8 | 6.4 | 0.00 | 0.94 | 0.94 | 96 | 1008.7 |
| 20260510015044 | 9 | 118 | 3.2 | 4.8 | 0.00 | 0.94 | 0.94 | 96 | 1008.4 |
| 20260510014540 | 9 | 127 | 0.0 | 4.8 | 0.00 | 0.94 | 0.94 | 96 | 1008.3 |
| 20260510014038 | 9 | 132 | 3.2 | 6.4 | 0.00 | 0.94 | 0.94 | 96 | 1008.3 |
| 20260510013532 | 9 | 121 | 1.6 | 3.2 | 0.00 | 0.94 | 0.94 | 96 | 1008.0 |
| 20260510013028 | 10 | 130 | 4.8 | 6.4 | 0.00 | 0.94 | 0.94 | 96 | 1008.3 |
| 20260510012528 | 10 | 140 | 4.8 | 8.0 | 0.00 | 0.94 | 0.94 | 96 | 1008.4 |
| 20260510012025 | 10 | 126 | 3.2 | 8.0 | 0.00 | 0.94 | 0.94 | 96 | 1008.1 |
| 20260510011524 | 10 | 140 | 3.2 | 11.3 | 0.00 | 0.94 | 0.94 | 96 | 1008.1 |
| 20260510011020 | 10 | 204 | 1.6 | 4.8 | 0.00 | 0.94 | 0.94 | 96 | 1008.2 |
| 20260510010518 | 10 | 158 | 1.6 | 3.2 | 0.00 | 0.94 | 0.94 | 96 | 1008.0 |
| 20260510010014 | 10 | 310 | 1.6 | 6.4 | 0.00 | 0.94 | 0.94 | 96 | 1008.0 |
| 20260510005510 | 10 | 135 | 0.0 | 4.8 | 0.00 | 0.94 | 0.94 | 96 | 1007.9 |
| 20260510005008 | 10 | 129 | 3.2 | 4.8 | 0.00 | 0.94 | 0.94 | 96 | 1007.9 |
| 20260510004505 | 10 | 99 | 1.6 | 3.2 | 0.00 | 0.94 | 0.94 | 96 | 1008.1 |
| 20260510004003 | 10 | 103 | 0.0 | 3.2 | 0.00 | 0.94 | 0.94 | 96 | 1007.7 |
| 20260510003459 | 10 | 155 | 4.8 | 6.4 | 0.00 | 0.94 | 0.94 | 96 | 1007.8 |
| 20260510002955 | 10 | 158 | 4.8 | 6.4 | 0.00 | 0.94 | 0.94 | 96 | 1007.6 |
| 20260510002451 | 10 | 133 | 1.6 | 4.8 | 0.00 | 0.94 | 0.94 | 96 | 1007.6 |
| 20260510001948 | 10 | 159 | 3.2 | 4.8 | 0.00 | 0.94 | 0.94 | 96 | 1007.7 |
| 20260510001445 | 10 | 132 | 4.8 | 9.7 | 0.00 | 0.94 | 0.94 | 96 | 1007.3 |
| 20260510000943 | 10 | 106 | 3.2 | 8.0 | 0.00 | 0.94 | 0.94 | 96 | 1007.7 |
| 20260510000440 | 10 | 148 | 4.8 | 8.0 | 0.00 | 0.94 | 0.94 | 96 | 1007.7 |
| 20260509235935 | 10 | 173 | 3.2 | 8.0 | 0.00 | 0.94 | 0.94 | 96 | 1007.4 |
| 20260509235432 | 10 | 120 | 3.2 | 4.8 | 0.00 | 0.94 | 0.94 | 95 | 1007.4 |
| 20260509234928 | 11 | 126 | 3.2 | 6.4 | 0.00 | 0.94 | 0.94 | 95 | 1007.3 |
| 20260509234425 | 11 | 119 | 3.2 | 8.0 | 0.00 | 0.94 | 0.94 | 94 | 1007.5 |
| 20260509233923 | 11 | 120 | 0.0 | 9.7 | 0.00 | 0.94 | 0.94 | 94 | 1007.5 |
| 20260509233421 | 11 | 123 | 0.0 | 4.8 | 0.00 | 0.94 | 0.94 | 93 | 1007.3 |
| 20260509232916 | 11 | 147 | 4.8 | 9.7 | 0.00 | 0.94 | 0.94 | 92 | 1007.2 |
| 20260509232414 | 11 | 120 | 3.2 | 8.0 | 0.00 | 0.94 | 0.94 | 91 | 1007.2 |
| 20260509231910 | 12 | 148 | 3.2 | 8.0 | 0.00 | 0.94 | 0.94 | 91 | 1007.2 |
| 20260509231407 | 12 | 127 | 1.6 | 11.3 | 0.00 | 0.94 | 0.94 | 90 | 1007.3 |
| 20260509230905 | 12 | 199 | 3.2 | 12.9 | 0.00 | 0.94 | 0.94 | 90 | 1007.2 |
| 20260509230401 | 12 | 117 | 4.8 | 8.0 | 0.00 | 0.94 | 0.94 | 91 | 1007.3 |
| 20260509225857 | 12 | 123 | 3.2 | 6.4 | 0.00 | 0.94 | 0.94 | 92 | 1007.4 |
| 20260509225354 | 12 | 154 | 3.2 | 6.4 | 0.00 | 0.94 | 0.94 | 92 | 1007.4 |
| 20260509224849 | 12 | 137 | 9.7 | 11.3 | 0.00 | 0.94 | 0.94 | 92 | 1007.3 |
| 20260509224346 | 12 | 125 | 3.2 | 16.1 | 0.00 | 0.94 | 0.94 | 91 | 1007.5 |
| 20260509223843 | 11 | 130 | 3.2 | 8.0 | 0.00 | 0.94 | 0.94 | 94 | 1007.6 |
| 20260509223340 | 11 | 247 | 8.0 | 8.0 | 0.00 | 0.94 | 0.94 | 94 | 1007.7 |
| 20260509222837 | 11 | 214 | 1.6 | 8.0 | 0.00 | 0.94 | 0.94 | 94 | 1007.5 |
| 20260509222332 | 11 | 180 | 0.0 | 6.4 | 0.00 | 0.94 | 0.94 | 94 | 1007.4 |
| 20260509221827 | 11 | 209 | 4.8 | 6.4 | 0.00 | 0.94 | 0.94 | 94 | 1007.3 |
| 20260509221325 | 11 | 213 | 3.2 | 8.0 | 0.00 | 0.94 | 0.94 | 94 | 1007.2 |
| 20260509220825 | 11 | 178 | 6.4 | 9.7 | 0.00 | 0.94 | 0.94 | 94 | 1007.1 |
| 20260509220321 | 11 | 229 | 11.3 | 11.3 | 0.00 | 0.94 | 0.94 | 94 | 1007.2 |
| 20260509215817 | 11 | 139 | 9.7 | 14.5 | 0.00 | 0.94 | 0.94 | 95 | 1007.4 |
| 20260509215314 | 11 | 133 | 3.2 | 12.9 | 0.00 | 0.94 | 0.94 | 95 | 1007.4 |
| 20260509214811 | 11 | 116 | 1.6 | 12.9 | 0.00 | 0.94 | 0.94 | 96 | 1007.3 |
| 20260509214308 | 11 | 178 | 8.0 | 11.3 | 0.00 | 0.94 | 0.94 | 96 | 1007.4 |
| 20260509213805 | 11 | 220 | 1.6 | 4.8 | 0.00 | 0.94 | 0.94 | 96 | 1007.3 |
| 20260509213301 | 11 | 237 | 9.7 | 9.7 | 0.00 | 0.94 | 0.94 | 96 | 1007.5 |
| 20260509212758 | 11 | 116 | 3.2 | 8.0 | 0.00 | 0.94 | 0.94 | 96 | 1007.4 |
| 20260509212255 | 11 | 131 | 4.8 | 11.3 | 0.00 | 0.94 | 0.94 | 96 | 1007.7 |
| 20260509211751 | 11 | 145 | 3.2 | 8.0 | 0.00 | 0.94 | 0.94 | 96 | 1007.5 |
| 20260509211248 | 11 | 202 | 1.6 | 8.0 | 0.00 | 0.94 | 0.94 | 96 | 1007.6 |
| 20260509210744 | 11 | 236 | 6.4 | 9.7 | 0.00 | 0.94 | 0.94 | 96 | 1007.7 |
| 20260509210242 | 11 | 128 | 1.6 | 8.0 | 0.00 | 0.94 | 0.94 | 96 | 1007.9 |
| 20260509205741 | 10 | 141 | 6.4 | 11.3 | 0.00 | 0.94 | 0.94 | 96 | 1007.9 |
| 20260509205236 | 10 | 192 | 3.2 | 11.3 | 0.05 | 0.94 | 0.94 | 96 | 1008.0 |
| 20260509204732 | 10 | 189 | 3.2 | 9.7 | 0.05 | 0.94 | 0.94 | 96 | 1007.9 |
| 20260509204229 | 10 | 237 | 3.2 | 8.0 | 0.00 | 0.94 | 0.94 | 96 | 1008.0 |
| 20260509203725 | 10 | 187 | 3.2 | 11.3 | 0.00 | 0.94 | 0.94 | 96 | 1008.1 |
| 20260509203223 | 10 | 217 | 4.8 | 8.0 | 0.00 | 0.94 | 0.94 | 96 | 1008.1 |
| 20260509202719 | 10 | 125 | 4.8 | 8.0 | 0.00 | 0.94 | 0.94 | 96 | 1008.2 |
| 20260509202214 | 10 | 134 | 3.2 | 8.0 | 0.00 | 0.94 | 0.94 | 96 | 1008.1 |
| 20260509201709 | 10 | 213 | 4.8 | 8.0 | 0.00 | 0.94 | 0.94 | 96 | 1008.3 |
| 20260509201206 | 10 | 183 | 1.6 | 4.8 | 0.00 | 0.94 | 0.94 | 96 | 1008.2 |
| 20260509200703 | 10 | 198 | 3.2 | 8.0 | 0.05 | 0.94 | 0.94 | 96 | 1008.2 |
| 20260509200157 | 10 | 168 | 4.8 | 6.4 | 0.00 | 0.94 | 0.94 | 96 | 1008.3 |
| 20260509195654 | 10 | 133 | 6.4 | 9.7 | 0.00 | 0.94 | 0.94 | 96 | 1008.5 |
| 20260509195149 | 10 | 83 | 3.2 | 4.8 | 0.05 | 0.94 | 0.94 | 96 | 1008.3 |
| 20260509194643 | 10 | 132 | 3.2 | 11.3 | 0.05 | 0.94 | 0.94 | 96 | 1008.5 |
| 20260509194140 | 10 | 98 | 0.0 | 8.0 | 0.00 | 0.91 | 0.91 | 96 | 1008.3 |
| 20260509193636 | 10 | 163 | 4.8 | 17.7 | 0.05 | 0.91 | 0.91 | 96 | 1008.4 |
| 20260509193132 | 10 | 131 | 12.9 | 12.9 | 0.05 | 0.91 | 0.91 | 96 | 1008.6 |
| 20260509192629 | 10 | 105 | 3.2 | 4.8 | 0.05 | 0.91 | 0.91 | 96 | 1008.6 |
| 20260509192123 | 10 | 212 | 3.2 | 6.4 | 0.05 | 0.91 | 0.91 | 96 | 1008.6 |
| 20260509191618 | 10 | 190 | 0.0 | 8.0 | 0.05 | 0.89 | 0.89 | 96 | 1008.7 |
| 20260509191115 | 10 | 137 | 4.8 | 8.0 | 0.05 | 0.89 | 0.89 | 96 | 1008.6 |
| 20260509190611 | 10 | 151 | 1.6 | 11.3 | 0.00 | 0.89 | 0.89 | 96 | 1008.7 |